| time (UTC) | temp C | wind direction | speed KPH | gust KPH | rain 1hr cm | rain 24hr cm | rain mn cm | humidity % | barometer mb |
| 20260508060632 | 4 | 293 | 0.0 | 0.0 | 0.00 | 0.00 | 0.00 | 68 | 1007.4 |
| 20260508060129 | 4 | 293 | 0.0 | 0.0 | 0.00 | 0.00 | 0.00 | 68 | 1007.5 |
| 20260508055625 | 4 | 293 | 0.0 | 0.0 | 0.00 | 0.00 | 0.00 | 69 | 1007.5 |
| 20260508055122 | 4 | 293 | 0.0 | 0.0 | 0.00 | 0.00 | 0.00 | 70 | 1007.7 |
| 20260508054618 | 4 | 293 | 0.0 | 0.0 | 0.00 | 0.00 | 0.00 | 70 | 1007.7 |
| 20260508054116 | 4 | 293 | 0.0 | 0.0 | 0.00 | 0.00 | 0.00 | 70 | 1007.7 |
| 20260508053612 | 5 | 293 | 0.0 | 0.0 | 0.00 | 0.00 | 0.00 | 67 | 1007.7 |
| 20260508053110 | 5 | 293 | 0.0 | 0.0 | 0.00 | 0.00 | 0.00 | 64 | 1007.6 |
| 20260508052607 | 5 | 293 | 0.0 | 0.0 | 0.00 | 0.00 | 0.00 | 62 | 1007.8 |
| 20260508052105 | 6 | 293 | 0.0 | 0.0 | 0.00 | 0.00 | 0.00 | 61 | 1008.0 |
| 20260508051600 | 6 | 313 | 0.0 | 0.0 | 0.00 | 0.00 | 0.00 | 57 | 1007.9 |
| 20260508051056 | 6 | 298 | 0.0 | 0.0 | 0.00 | 0.00 | 0.00 | 57 | 1007.9 |
| 20260508050552 | 6 | 292 | 0.0 | 0.0 | 0.00 | 0.00 | 0.00 | 56 | 1007.8 |
| 20260508050050 | 6 | 292 | 0.0 | 0.0 | 0.00 | 0.00 | 0.00 | 56 | 1007.8 |
| 20260508045546 | 6 | 258 | 0.0 | 0.0 | 0.00 | 0.00 | 0.00 | 57 | 1008.0 |
| 20260508045044 | 5 | 254 | 0.0 | 1.6 | 0.00 | 0.00 | 0.00 | 60 | 1007.9 |
| 20260508044541 | 5 | 275 | 0.0 | 1.6 | 0.00 | 0.00 | 0.00 | 63 | 1007.8 |
| 20260508044036 | 6 | 276 | 0.0 | 0.0 | 0.00 | 0.00 | 0.00 | 66 | 1007.8 |
| 20260508043533 | 6 | 289 | 0.0 | 0.0 | 0.00 | 0.00 | 0.00 | 64 | 1008.0 |
| 20260508043031 | 6 | 289 | 0.0 | 0.0 | 0.00 | 0.00 | 0.00 | 60 | 1008.0 |
| 20260508042527 | 5 | 292 | 0.0 | 0.0 | 0.00 | 0.00 | 0.00 | 62 | 1007.9 |
| 20260508042025 | 5 | 292 | 0.0 | 0.0 | 0.00 | 0.00 | 0.00 | 64 | 1008.0 |
| 20260508041521 | 5 | 292 | 0.0 | 0.0 | 0.00 | 0.00 | 0.00 | 64 | 1008.1 |
| 20260508041018 | 6 | 292 | 0.0 | 0.0 | 0.00 | 0.00 | 0.00 | 64 | 1008.0 |
| 20260508040515 | 6 | 292 | 0.0 | 0.0 | 0.00 | 0.00 | 0.00 | 59 | 1008.0 |
| 20260508040012 | 6 | 288 | 0.0 | 0.0 | 0.00 | 0.28 | 0.28 | 57 | 1008.0 |
| 20260508035509 | 6 | 288 | 0.0 | 0.0 | 0.00 | 0.28 | 0.28 | 54 | 1008.2 |
| 20260508035006 | 7 | 285 | 0.0 | 0.0 | 0.00 | 0.28 | 0.28 | 53 | 1008.1 |
| 20260508034503 | 7 | 284 | 0.0 | 0.0 | 0.00 | 0.28 | 0.28 | 52 | 1008.2 |
| 20260508034000 | 7 | 297 | 0.0 | 0.0 | 0.00 | 0.28 | 0.28 | 53 | 1008.2 |
| 20260508033458 | 6 | 256 | 1.6 | 1.6 | 0.00 | 0.28 | 0.28 | 53 | 1008.1 |
| 20260508032955 | 6 | 272 | 0.0 | 1.6 | 0.00 | 0.28 | 0.28 | 58 | 1008.1 |
| 20260508032452 | 6 | 284 | 0.0 | 0.0 | 0.00 | 0.28 | 0.28 | 62 | 1008.1 |
| 20260508031949 | 6 | 277 | 0.0 | 0.0 | 0.00 | 0.28 | 0.28 | 64 | 1008.1 |
| 20260508031447 | 6 | 276 | 0.0 | 0.0 | 0.00 | 0.28 | 0.28 | 60 | 1008.0 |
| 20260508030942 | 6 | 277 | 0.0 | 0.0 | 0.00 | 0.28 | 0.28 | 59 | 1008.2 |
| 20260508030439 | 6 | 282 | 0.0 | 0.0 | 0.00 | 0.28 | 0.28 | 58 | 1008.3 |
| 20260508025937 | 6 | 310 | 0.0 | 0.0 | 0.00 | 0.28 | 0.28 | 57 | 1008.0 |
| 20260508025433 | 6 | 294 | 0.0 | 0.0 | 0.00 | 0.28 | 0.28 | 58 | 1007.9 |
| 20260508024930 | 6 | 273 | 0.0 | 0.0 | 0.00 | 0.28 | 0.28 | 57 | 1008.0 |
| 20260508024426 | 6 | 268 | 0.0 | 0.0 | 0.00 | 0.28 | 0.28 | 60 | 1008.1 |
| 20260508023923 | 6 | 258 | 0.0 | 0.0 | 0.00 | 0.28 | 0.28 | 57 | 1007.8 |
| 20260508023420 | 7 | 263 | 0.0 | 0.0 | 0.00 | 0.28 | 0.28 | 61 | 1007.7 |
| 20260508022917 | 7 | 266 | 0.0 | 0.0 | 0.00 | 0.28 | 0.28 | 56 | 1007.9 |
| 20260508022413 | 7 | 281 | 0.0 | 0.0 | 0.00 | 0.28 | 0.28 | 54 | 1008.3 |
| 20260508021910 | 7 | 291 | 0.0 | 1.6 | 0.00 | 0.28 | 0.28 | 51 | 1008.1 |
| 20260508021406 | 7 | 263 | 0.0 | 0.0 | 0.00 | 0.28 | 0.28 | 52 | 1008.2 |
| 20260508020902 | 7 | 265 | 0.0 | 0.0 | 0.00 | 0.28 | 0.28 | 51 | 1007.9 |
| 20260508020400 | 7 | 260 | 0.0 | 0.0 | 0.00 | 0.28 | 0.28 | 48 | 1007.9 |
| 20260508015857 | 8 | 281 | 0.0 | 0.0 | 0.00 | 0.28 | 0.28 | 48 | 1008.0 |
| 20260508015354 | 8 | 265 | 0.0 | 0.0 | 0.00 | 0.28 | 0.28 | 50 | 1007.9 |
| 20260508014850 | 8 | 263 | 0.0 | 0.0 | 0.00 | 0.28 | 0.28 | 49 | 1008.1 |
| 20260508014348 | 8 | 280 | 0.0 | 0.0 | 0.00 | 0.28 | 0.28 | 47 | 1008.1 |
| 20260508013843 | 8 | 337 | 0.0 | 0.0 | 0.00 | 0.28 | 0.28 | 50 | 1008.1 |
| 20260508013340 | 8 | 290 | 0.0 | 0.0 | 0.00 | 0.28 | 0.28 | 49 | 1008.0 |
| 20260508012837 | 8 | 275 | 0.0 | 0.0 | 0.00 | 0.28 | 0.28 | 47 | 1007.9 |
| 20260508012334 | 8 | 271 | 0.0 | 0.0 | 0.00 | 0.28 | 0.28 | 46 | 1007.9 |
| 20260508011832 | 8 | 298 | 0.0 | 1.6 | 0.00 | 0.28 | 0.28 | 46 | 1007.9 |
| 20260508011330 | 8 | 29 | 3.2 | 3.2 | 0.00 | 0.28 | 0.28 | 45 | 1008.0 |
| 20260508010827 | 9 | 300 | 0.0 | 0.0 | 0.00 | 0.28 | 0.28 | 45 | 1007.8 |
| 20260508010324 | 9 | 256 | 0.0 | 0.0 | 0.00 | 0.28 | 0.28 | 44 | 1007.7 |
| 20260508005821 | 10 | 274 | 0.0 | 0.0 | 0.00 | 0.28 | 0.28 | 44 | 1007.6 |
| 20260508005318 | 10 | 256 | 0.0 | 0.0 | 0.00 | 0.28 | 0.28 | 43 | 1007.7 |
| 20260508004815 | 10 | 269 | 0.0 | 1.6 | 0.00 | 0.28 | 0.28 | 42 | 1007.6 |
| 20260508004310 | 10 | 288 | 0.0 | 1.6 | 0.00 | 0.28 | 0.28 | 43 | 1007.4 |
| 20260508003807 | 10 | 293 | 0.0 | 4.8 | 0.00 | 0.28 | 0.28 | 42 | 1007.4 |
| 20260508003304 | 10 | 302 | 1.6 | 1.6 | 0.00 | 0.28 | 0.28 | 42 | 1007.3 |
| 20260508002801 | 10 | 242 | 1.6 | 3.2 | 0.00 | 0.28 | 0.28 | 42 | 1007.4 |
| 20260508002258 | 10 | 274 | 1.6 | 3.2 | 0.00 | 0.28 | 0.28 | 42 | 1007.3 |
| 20260508001754 | 10 | 283 | 0.0 | 1.6 | 0.00 | 0.28 | 0.28 | 43 | 1007.2 |
| 20260508001249 | 11 | 274 | 0.0 | 0.0 | 0.00 | 0.28 | 0.28 | 43 | 1007.1 |
| 20260508000746 | 11 | 280 | 0.0 | 4.8 | 0.00 | 0.28 | 0.28 | 42 | 1007.1 |
| 20260508000243 | 11 | 285 | 0.0 | 1.6 | 0.00 | 0.28 | 0.28 | 42 | 1007.0 |
| 20260507235739 | 11 | 286 | 0.0 | 3.2 | 0.00 | 0.28 | 0.28 | 41 | 1007.0 |
| 20260507235237 | 11 | 337 | 1.6 | 6.4 | 0.00 | 0.28 | 0.28 | 41 | 1007.0 |
| 20260507234734 | 11 | 272 | 1.6 | 3.2 | 0.00 | 0.28 | 0.28 | 40 | 1006.9 |
| 20260507234230 | 11 | 296 | 3.2 | 4.8 | 0.00 | 0.28 | 0.28 | 40 | 1006.8 |
| 20260507233727 | 12 | 327 | 0.0 | 9.7 | 0.00 | 0.28 | 0.28 | 40 | 1006.7 |
| 20260507233225 | 12 | 354 | 6.4 | 9.7 | 0.00 | 0.28 | 0.28 | 40 | 1006.7 |
| 20260507232722 | 12 | 264 | 1.6 | 4.8 | 0.00 | 0.28 | 0.28 | 41 | 1006.5 |
| 20260507232219 | 12 | 276 | 1.6 | 3.2 | 0.00 | 0.28 | 0.28 | 40 | 1006.3 |
| 20260507231715 | 12 | 288 | 1.6 | 3.2 | 0.00 | 0.28 | 0.28 | 39 | 1006.1 |
| 20260507231213 | 12 | 302 | 1.6 | 6.4 | 0.00 | 0.28 | 0.28 | 38 | 1006.2 |
| 20260507230709 | 12 | 296 | 1.6 | 9.7 | 0.00 | 0.28 | 0.28 | 38 | 1006.0 |
| 20260507230207 | 13 | 284 | 0.0 | 4.8 | 0.00 | 0.28 | 0.28 | 39 | 1005.8 |
| 20260507225706 | 13 | 320 | 9.7 | 17.7 | 0.00 | 0.28 | 0.28 | 38 | 1005.8 |
| 20260507225203 | 13 | 316 | 3.2 | 12.9 | 0.00 | 0.28 | 0.28 | 37 | 1005.7 |
| 20260507224658 | 13 | 306 | 1.6 | 12.9 | 0.00 | 0.28 | 0.28 | 38 | 1005.6 |
| 20260507224155 | 13 | 276 | 0.0 | 4.8 | 0.00 | 0.28 | 0.28 | 38 | 1005.4 |
| 20260507223651 | 13 | 20 | 4.8 | 9.7 | 0.00 | 0.28 | 0.28 | 37 | 1005.5 |
| 20260507223148 | 14 | 294 | 3.2 | 4.8 | 0.00 | 0.28 | 0.28 | 38 | 1005.5 |
| 20260507222645 | 14 | 326 | 1.6 | 9.7 | 0.00 | 0.28 | 0.28 | 38 | 1005.6 |
| 20260507222141 | 14 | 285 | 1.6 | 9.7 | 0.00 | 0.28 | 0.28 | 38 | 1005.3 |
| 20260507221638 | 14 | 255 | 4.8 | 9.7 | 0.00 | 0.28 | 0.28 | 37 | 1005.2 |
| 20260507221134 | 15 | 262 | 3.2 | 12.9 | 0.00 | 0.28 | 0.28 | 38 | 1005.4 |
| 20260507220632 | 15 | 279 | 4.8 | 12.9 | 0.00 | 0.28 | 0.28 | 36 | 1005.2 |
| 20260507220130 | 15 | 295 | 3.2 | 14.5 | 0.00 | 0.28 | 0.28 | 37 | 1004.9 |
| 20260507215625 | 15 | 289 | 3.2 | 4.8 | 0.00 | 0.28 | 0.28 | 37 | 1005.0 |
| 20260507215123 | 15 | 329 | 1.6 | 12.9 | 0.00 | 0.28 | 0.28 | 36 | 1004.7 |
| 20260507214620 | 16 | 254 | 4.8 | 11.3 | 0.00 | 0.28 | 0.28 | 34 | 1005.0 |
| 20260507214116 | 16 | 234 | 0.0 | 3.2 | 0.00 | 0.28 | 0.28 | 35 | 1004.8 |
| 20260507213612 | 16 | 348 | 6.4 | 6.4 | 0.00 | 0.28 | 0.28 | 32 | 1004.7 |
| 20260507213110 | 16 | 285 | 4.8 | 9.7 | 0.00 | 0.28 | 0.28 | 32 | 1004.7 |
| 20260507212606 | 16 | 292 | 3.2 | 14.5 | 0.00 | 0.28 | 0.28 | 31 | 1004.8 |
| 20260507212102 | 16 | 258 | 1.6 | 12.9 | 0.00 | 0.28 | 0.28 | 31 | 1004.6 |
| 20260507211559 | 16 | 276 | 3.2 | 4.8 | 0.00 | 0.28 | 0.28 | 32 | 1004.6 |
| 20260507211055 | 17 | 207 | 9.7 | 12.9 | 0.00 | 0.28 | 0.28 | 30 | 1004.4 |
| 20260507210553 | 17 | 330 | 3.2 | 3.2 | 0.00 | 0.28 | 0.28 | 32 | 1004.2 |
| 20260507210049 | 17 | 289 | 3.2 | 6.4 | 0.00 | 0.28 | 0.28 | 32 | 1004.3 |
| 20260507205546 | 18 | 269 | 1.6 | 4.8 | 0.00 | 0.28 | 0.28 | 29 | 1004.2 |
| 20260507205042 | 18 | 233 | 3.2 | 4.8 | 0.00 | 0.28 | 0.28 | 31 | 1004.0 |
| 20260507204539 | 18 | 267 | 0.0 | 6.4 | 0.00 | 0.28 | 0.28 | 30 | 1004.0 |
| 20260507204036 | 18 | 208 | 3.2 | 6.4 | 0.00 | 0.28 | 0.28 | 32 | 1003.9 |
| 20260507203534 | 17 | 187 | 6.4 | 9.7 | 0.00 | 0.28 | 0.28 | 33 | 1003.9 |
| 20260507203031 | 17 | 205 | 3.2 | 9.7 | 0.00 | 0.28 | 0.28 | 34 | 1004.0 |
| 20260507202527 | 17 | 209 | 4.8 | 9.7 | 0.00 | 0.28 | 0.28 | 34 | 1004.0 |
| 20260507202023 | 17 | 43 | 3.2 | 9.7 | 0.00 | 0.28 | 0.28 | 36 | 1003.9 |
| 20260507201519 | 17 | 313 | 1.6 | 6.4 | 0.00 | 0.28 | 0.28 | 35 | 1004.0 |
| 20260507201015 | 17 | 215 | 8.0 | 11.3 | 0.00 | 0.28 | 0.28 | 35 | 1004.1 |
| 20260507200511 | 17 | 306 | 0.0 | 12.9 | 0.00 | 0.28 | 0.28 | 36 | 1004.1 |
| 20260507200007 | 17 | 285 | 6.4 | 9.7 | 0.00 | 0.28 | 0.28 | 37 | 1004.1 |
| 20260507195504 | 17 | 250 | 1.6 | 4.8 | 0.00 | 0.28 | 0.28 | 36 | 1004.2 |
| 20260507195002 | 16 | 274 | 3.2 | 9.7 | 0.00 | 0.28 | 0.28 | 35 | 1003.9 |
| 20260507194458 | 16 | 309 | 1.6 | 4.8 | 0.00 | 0.28 | 0.28 | 38 | 1004.1 |
| 20260507193954 | 16 | 296 | 3.2 | 6.4 | 0.00 | 0.28 | 0.28 | 39 | 1004.1 |
| 20260507193452 | 16 | 212 | 3.2 | 6.4 | 0.00 | 0.28 | 0.28 | 42 | 1004.2 |
| 20260507192948 | 16 | 246 | 1.6 | 3.2 | 0.00 | 0.28 | 0.28 | 45 | 1004.1 |
| 20260507192444 | 15 | 211 | 9.7 | 14.5 | 0.00 | 0.28 | 0.28 | 44 | 1004.0 |
| 20260507191942 | 16 | 262 | 0.0 | 9.7 | 0.00 | 0.28 | 0.28 | 45 | 1004.1 |
| 20260507191437 | 16 | 266 | 3.2 | 4.8 | 0.00 | 0.28 | 0.28 | 44 | 1004.1 |
| 20260507190934 | 16 | 293 | 1.6 | 14.5 | 0.00 | 0.28 | 0.28 | 44 | 1004.1 |
| 20260507190432 | 16 | 203 | 4.8 | 9.7 | 0.00 | 0.28 | 0.28 | 43 | 1004.1 |
| 20260507185931 | 16 | 219 | 0.0 | 6.4 | 0.00 | 0.28 | 0.28 | 44 | 1004.2 |
| 20260507185427 | 16 | 282 | 1.6 | 9.7 | 0.00 | 0.28 | 0.28 | 43 | 1004.3 |
| 20260507184924 | 16 | 285 | 1.6 | 3.2 | 0.00 | 0.28 | 0.28 | 44 | 1004.1 |
| 20260507184422 | 16 | 317 | 1.6 | 4.8 | 0.00 | 0.28 | 0.28 | 41 | 1004.0 |
| 20260507183919 | 17 | 273 | 1.6 | 4.8 | 0.00 | 0.28 | 0.28 | 41 | 1003.9 |
| 20260507183416 | 17 | 263 | 4.8 | 6.4 | 0.00 | 0.28 | 0.28 | 41 | 1004.1 |
| 20260507182914 | 17 | 288 | 3.2 | 6.4 | 0.00 | 0.28 | 0.28 | 42 | 1004.3 |
| 20260507182409 | 17 | 254 | 4.8 | 4.8 | 0.00 | 0.28 | 0.28 | 42 | 1004.1 |
| 20260507181906 | 16 | 317 | 4.8 | 6.4 | 0.00 | 0.28 | 0.28 | 43 | 1004.2 |
| 20260507181402 | 16 | 307 | 6.4 | 6.4 | 0.00 | 0.28 | 0.28 | 41 | 1004.2 |
| 20260507180859 | 16 | 266 | 0.0 | 1.6 | 0.00 | 0.28 | 0.28 | 42 | 1004.2 |
| 20260507180355 | 16 | 269 | 1.6 | 9.7 | 0.00 | 0.28 | 0.28 | 42 | 1004.3 |
| 20260507175851 | 17 | 218 | 4.8 | 4.8 | 0.00 | 0.28 | 0.28 | 42 | 1004.3 |
| 20260507175348 | 16 | 259 | 1.6 | 3.2 | 0.00 | 0.28 | 0.28 | 44 | 1004.4 |
| 20260507174846 | 16 | 268 | 3.2 | 11.3 | 0.00 | 0.28 | 0.28 | 44 | 1004.6 |
| 20260507174343 | 16 | 209 | 8.0 | 12.9 | 0.00 | 0.28 | 0.28 | 43 | 1004.6 |
| 20260507173841 | 16 | 219 | 1.6 | 12.9 | 0.00 | 0.28 | 0.28 | 44 | 1004.6 |
| 20260507173337 | 16 | 220 | 12.9 | 20.9 | 0.00 | 0.28 | 0.28 | 42 | 1004.4 |
| 20260507172833 | 16 | 300 | 1.6 | 11.3 | 0.00 | 0.28 | 0.28 | 45 | 1004.4 |
| 20260507172331 | 16 | 173 | 1.6 | 3.2 | 0.00 | 0.28 | 0.28 | 43 | 1004.7 |
| 20260507171826 | 17 | 283 | 0.0 | 3.2 | 0.00 | 0.28 | 0.28 | 46 | 1004.7 |
| 20260507171323 | 16 | 258 | 1.6 | 9.7 | 0.00 | 0.28 | 0.28 | 44 | 1004.5 |
| 20260507170820 | 16 | 235 | 3.2 | 4.8 | 0.00 | 0.28 | 0.28 | 46 | 1004.7 |
| 20260507170317 | 16 | 160 | 4.8 | 4.8 | 0.00 | 0.28 | 0.28 | 45 | 1004.8 |
| 20260507165813 | 16 | 283 | 1.6 | 6.4 | 0.00 | 0.28 | 0.28 | 46 | 1004.9 |
| 20260507165309 | 16 | 244 | 3.2 | 4.8 | 0.00 | 0.28 | 0.28 | 46 | 1004.9 |
| 20260507164805 | 16 | 316 | 3.2 | 3.2 | 0.00 | 0.28 | 0.28 | 46 | 1004.7 |
| 20260507164302 | 16 | 220 | 4.8 | 4.8 | 0.00 | 0.28 | 0.28 | 45 | 1005.0 |
| 20260507163759 | 16 | 253 | 3.2 | 4.8 | 0.00 | 0.28 | 0.28 | 48 | 1005.2 |
| 20260507163257 | 15 | 332 | 1.6 | 3.2 | 0.00 | 0.28 | 0.28 | 49 | 1005.2 |
| 20260507162753 | 15 | 226 | 4.8 | 9.7 | 0.00 | 0.28 | 0.28 | 49 | 1005.2 |
| 20260507162249 | 15 | 238 | 4.8 | 6.4 | 0.00 | 0.28 | 0.28 | 50 | 1005.2 |
| 20260507161746 | 15 | 264 | 1.6 | 3.2 | 0.00 | 0.28 | 0.28 | 52 | 1005.2 |
| 20260507161243 | 15 | 223 | 3.2 | 4.8 | 0.00 | 0.28 | 0.28 | 50 | 1005.4 |
| 20260507160738 | 15 | 226 | 6.4 | 9.7 | 0.00 | 0.28 | 0.28 | 49 | 1005.3 |
| 20260507160235 | 15 | 283 | 0.0 | 1.6 | 0.00 | 0.28 | 0.28 | 50 | 1005.4 |
| 20260507155731 | 15 | 324 | 0.0 | 6.4 | 0.00 | 0.28 | 0.28 | 53 | 1005.5 |
| 20260507155227 | 15 | 272 | 0.0 | 1.6 | 0.00 | 0.28 | 0.28 | 53 | 1005.4 |
| 20260507154724 | 15 | 243 | 0.0 | 1.6 | 0.00 | 0.28 | 0.28 | 50 | 1005.7 |
| 20260507154222 | 15 | 207 | 3.2 | 4.8 | 0.00 | 0.28 | 0.28 | 51 | 1005.7 |
| 20260507153718 | 15 | 251 | 0.0 | 6.4 | 0.00 | 0.28 | 0.28 | 49 | 1005.7 |
| 20260507153215 | 15 | 283 | 0.0 | 11.3 | 0.00 | 0.28 | 0.28 | 52 | 1005.8 |
| 20260507152711 | 15 | 23 | 1.6 | 9.7 | 0.00 | 0.28 | 0.28 | 51 | 1005.7 |
| 20260507152207 | 15 | 9 | 4.8 | 6.4 | 0.00 | 0.28 | 0.28 | 50 | 1005.9 |
| 20260507151703 | 15 | 234 | 1.6 | 1.6 | 0.00 | 0.28 | 0.28 | 53 | 1005.7 |
| 20260507151200 | 15 | 0 | 1.6 | 1.6 | 0.00 | 0.28 | 0.28 | 51 | 1005.8 |
| 20260507150657 | 15 | 326 | 3.2 | 4.8 | 0.00 | 0.28 | 0.28 | 51 | 1005.8 |
| 20260507150154 | 15 | 304 | 3.2 | 4.8 | 0.00 | 0.28 | 0.28 | 53 | 1006.1 |
| 20260507145649 | 15 | 264 | 0.0 | 6.4 | 0.00 | 0.28 | 0.28 | 52 | 1006.0 |
| 20260507145147 | 14 | 250 | 0.0 | 1.6 | 0.00 | 0.28 | 0.28 | 54 | 1006.0 |
| 20260507144643 | 14 | 351 | 6.4 | 6.4 | 0.00 | 0.28 | 0.28 | 56 | 1006.3 |
| 20260507144141 | 14 | 281 | 3.2 | 4.8 | 0.00 | 0.28 | 0.28 | 56 | 1006.2 |
| 20260507143638 | 14 | 238 | 3.2 | 3.2 | 0.00 | 0.28 | 0.28 | 56 | 1006.3 |
| 20260507143135 | 13 | 269 | 0.0 | 3.2 | 0.00 | 0.28 | 0.28 | 59 | 1006.3 |
| 20260507142630 | 14 | 269 | 0.0 | 14.5 | 0.00 | 0.28 | 0.28 | 57 | 1006.2 |
| 20260507142127 | 14 | 218 | 1.6 | 3.2 | 0.00 | 0.28 | 0.28 | 58 | 1006.4 |
| 20260507141623 | 13 | 297 | 1.6 | 3.2 | 0.00 | 0.28 | 0.28 | 60 | 1006.3 |
| 20260507141120 | 13 | 244 | 3.2 | 3.2 | 0.00 | 0.28 | 0.28 | 59 | 1006.2 |
| 20260507140617 | 13 | 56 | 1.6 | 3.2 | 0.00 | 0.28 | 0.28 | 61 | 1006.5 |
| 20260507140114 | 13 | 234 | 1.6 | 6.4 | 0.00 | 0.28 | 0.28 | 62 | 1006.7 |
| 20260507135611 | 13 | 273 | 0.0 | 3.2 | 0.00 | 0.28 | 0.28 | 64 | 1006.7 |
| 20260507135109 | 12 | 237 | 1.6 | 3.2 | 0.00 | 0.28 | 0.28 | 63 | 1006.6 |
| 20260507134605 | 13 | 308 | 3.2 | 4.8 | 0.00 | 0.28 | 0.28 | 62 | 1006.6 |
| 20260507134101 | 12 | 242 | 1.6 | 1.6 | 0.00 | 0.28 | 0.28 | 66 | 1006.5 |
| 20260507133557 | 12 | 141 | 3.2 | 3.2 | 0.00 | 0.28 | 0.28 | 64 | 1006.6 |
| 20260507133055 | 12 | 179 | 1.6 | 3.2 | 0.00 | 0.28 | 0.28 | 64 | 1006.5 |
| 20260507132552 | 12 | 250 | 0.0 | 1.6 | 0.00 | 0.28 | 0.28 | 65 | 1006.7 |
| 20260507132048 | 11 | 300 | 1.6 | 3.2 | 0.00 | 0.28 | 0.28 | 67 | 1006.7 |
| 20260507131545 | 12 | 231 | 8.0 | 9.7 | 0.00 | 0.28 | 0.28 | 66 | 1006.7 |
| 20260507131042 | 12 | 308 | 1.6 | 3.2 | 0.00 | 0.28 | 0.28 | 65 | 1006.7 |
| 20260507130539 | 12 | 29 | 1.6 | 4.8 | 0.00 | 0.28 | 0.28 | 66 | 1006.6 |
| 20260507130037 | 11 | 221 | 3.2 | 4.8 | 0.00 | 0.28 | 0.28 | 69 | 1006.8 |
| 20260507125535 | 11 | 253 | 1.6 | 3.2 | 0.00 | 0.28 | 0.28 | 67 | 1006.9 |
| 20260507125032 | 11 | 319 | 1.6 | 3.2 | 0.00 | 0.28 | 0.28 | 68 | 1007.0 |
| 20260507124529 | 11 | 310 | 1.6 | 4.8 | 0.00 | 0.28 | 0.28 | 70 | 1007.1 |
| 20260507124026 | 11 | 268 | 1.6 | 3.2 | 0.00 | 0.28 | 0.28 | 70 | 1006.8 |
| 20260507123525 | 11 | 223 | 3.2 | 4.8 | 0.00 | 0.28 | 0.28 | 71 | 1007.0 |
| 20260507123021 | 11 | 333 | 1.6 | 3.2 | 0.00 | 0.28 | 0.28 | 71 | 1006.8 |
| 20260507122516 | 11 | 257 | 3.2 | 4.8 | 0.00 | 0.28 | 0.28 | 71 | 1006.8 |
| 20260507122012 | 10 | 294 | 1.6 | 4.8 | 0.00 | 0.28 | 0.28 | 72 | 1006.7 |
| 20260507121508 | 10 | 342 | 1.6 | 11.3 | 0.00 | 0.28 | 0.28 | 73 | 1006.9 |
| 20260507121004 | 10 | 296 | 1.6 | 4.8 | 0.00 | 0.28 | 0.28 | 75 | 1007.0 |
| 20260507120500 | 10 | 270 | 1.6 | 4.8 | 0.00 | 0.28 | 0.28 | 76 | 1007.0 |
| 20260507115957 | 10 | 281 | 0.0 | 3.2 | 0.00 | 0.28 | 0.28 | 75 | 1007.3 |
| 20260507115454 | 10 | 269 | 1.6 | 1.6 | 0.00 | 0.28 | 0.28 | 78 | 1007.1 |
| 20260507114949 | 10 | 282 | 0.0 | 1.6 | 0.00 | 0.28 | 0.28 | 79 | 1007.4 |
| 20260507114445 | 10 | 291 | 1.6 | 3.2 | 0.00 | 0.28 | 0.28 | 80 | 1007.4 |
| 20260507113943 | 9 | 291 | 1.6 | 1.6 | 0.00 | 0.28 | 0.28 | 83 | 1007.2 |
| 20260507113440 | 9 | 238 | 0.0 | 1.6 | 0.00 | 0.28 | 0.28 | 84 | 1007.1 |
| 20260507112937 | 9 | 284 | 1.6 | 3.2 | 0.00 | 0.28 | 0.28 | 86 | 1007.2 |
| 20260507112435 | 9 | 278 | 0.0 | 3.2 | 0.00 | 0.28 | 0.28 | 89 | 1007.4 |
| 20260507111932 | 8 | 254 | 0.0 | 3.2 | 0.00 | 0.28 | 0.28 | 91 | 1007.4 |
| 20260507111429 | 8 | 296 | 0.0 | 0.0 | 0.00 | 0.28 | 0.28 | 93 | 1007.4 |
| 20260507110925 | 8 | 268 | 0.0 | 1.6 | 0.00 | 0.28 | 0.28 | 93 | 1007.2 |
| 20260507110421 | 8 | 259 | 0.0 | 0.0 | 0.00 | 0.28 | 0.28 | 94 | 1007.3 |
| 20260507105918 | 8 | 220 | 3.2 | 3.2 | 0.00 | 0.28 | 0.28 | 94 | 1007.2 |
| 20260507105415 | 8 | 268 | 0.0 | 0.0 | 0.00 | 0.28 | 0.28 | 95 | 1007.1 |
| 20260507104912 | 8 | 272 | 0.0 | 0.0 | 0.00 | 0.28 | 0.28 | 95 | 1007.1 |
| 20260507104408 | 8 | 272 | 0.0 | 0.0 | 0.00 | 0.28 | 0.28 | 95 | 1007.2 |
| 20260507103904 | 8 | 273 | 0.0 | 0.0 | 0.00 | 0.28 | 0.28 | 95 | 1007.1 |
| 20260507103401 | 8 | 261 | 0.0 | 0.0 | 0.00 | 0.28 | 0.28 | 95 | 1007.2 |
| 20260507102857 | 8 | 262 | 0.0 | 0.0 | 0.00 | 0.28 | 0.28 | 95 | 1007.5 |
| 20260507102354 | 7 | 264 | 0.0 | 0.0 | 0.00 | 0.28 | 0.28 | 95 | 1007.3 |
| 20260507101850 | 7 | 281 | 0.0 | 0.0 | 0.00 | 0.28 | 0.28 | 95 | 1006.9 |
| 20260507101350 | 7 | 281 | 0.0 | 0.0 | 0.00 | 0.28 | 0.28 | 95 | 1006.7 |
| 20260507100848 | 7 | 291 | 0.0 | 0.0 | 0.00 | 0.28 | 0.28 | 95 | 1006.8 |
| 20260507100346 | 7 | 281 | 0.0 | 0.0 | 0.00 | 0.28 | 0.28 | 95 | 1006.7 |
| 20260507095844 | 7 | 282 | 0.0 | 0.0 | 0.00 | 0.28 | 0.28 | 95 | 1006.5 |
| 20260507095340 | 7 | 282 | 0.0 | 0.0 | 0.00 | 0.28 | 0.28 | 95 | 1006.7 |
| 20260507094837 | 7 | 283 | 0.0 | 0.0 | 0.00 | 0.28 | 0.28 | 95 | 1006.7 |
| 20260507094333 | 7 | 291 | 0.0 | 0.0 | 0.00 | 0.28 | 0.28 | 95 | 1006.5 |
| 20260507093831 | 7 | 270 | 0.0 | 0.0 | 0.00 | 0.28 | 0.28 | 95 | 1006.9 |
| 20260507093329 | 7 | 270 | 0.0 | 0.0 | 0.00 | 0.28 | 0.28 | 95 | 1006.7 |
| 20260507092826 | 7 | 272 | 0.0 | 0.0 | 0.00 | 0.28 | 0.28 | 95 | 1006.6 |
| 20260507092323 | 7 | 273 | 0.0 | 0.0 | 0.00 | 0.28 | 0.28 | 95 | 1006.7 |
| 20260507091819 | 7 | 274 | 0.0 | 0.0 | 0.00 | 0.28 | 0.28 | 95 | 1006.5 |
| 20260507091316 | 7 | 265 | 0.0 | 0.0 | 0.00 | 0.28 | 0.28 | 95 | 1006.8 |
| 20260507090817 | 7 | 264 | 0.0 | 0.0 | 0.00 | 0.28 | 0.28 | 95 | 1007.1 |
| 20260507090314 | 7 | 266 | 0.0 | 0.0 | 0.00 | 0.28 | 0.28 | 95 | 1006.7 |
| 20260507085811 | 7 | 265 | 0.0 | 0.0 | 0.00 | 0.28 | 0.28 | 95 | 1007.0 |
| 20260507085308 | 7 | 248 | 0.0 | 0.0 | 0.00 | 0.28 | 0.28 | 95 | 1006.9 |
| 20260507084805 | 7 | 280 | 0.0 | 0.0 | 0.00 | 0.28 | 0.28 | 95 | 1006.5 |
| 20260507084301 | 7 | 269 | 0.0 | 0.0 | 0.00 | 0.28 | 0.28 | 95 | 1006.2 |
| 20260507083759 | 7 | 293 | 0.0 | 0.0 | 0.00 | 0.28 | 0.28 | 95 | 1006.3 |
| 20260507083255 | 7 | 293 | 0.0 | 1.6 | 0.00 | 0.28 | 0.28 | 95 | 1006.1 |
| 20260507082752 | 7 | 275 | 0.0 | 0.0 | 0.00 | 0.28 | 0.28 | 95 | 1006.4 |
| 20260507082247 | 8 | 290 | 0.0 | 0.0 | 0.00 | 0.28 | 0.28 | 95 | 1006.4 |
| 20260507081744 | 8 | 288 | 0.0 | 1.6 | 0.00 | 0.28 | 0.28 | 95 | 1006.5 |
| 20260507081240 | 8 | 310 | 0.0 | 0.0 | 0.00 | 0.28 | 0.28 | 95 | 1006.5 |
| 20260507080737 | 8 | 287 | 0.0 | 1.6 | 0.00 | 0.28 | 0.28 | 95 | 1006.4 |
| 20260507080233 | 8 | 294 | 0.0 | 0.0 | 0.00 | 0.28 | 0.28 | 95 | 1006.5 |
| 20260507075729 | 8 | 294 | 0.0 | 0.0 | 0.00 | 0.28 | 0.28 | 95 | 1006.3 |
| 20260507075225 | 8 | 300 | 0.0 | 0.0 | 0.00 | 0.28 | 0.28 | 95 | 1006.7 |
| 20260507074722 | 8 | 270 | 0.0 | 0.0 | 0.00 | 0.28 | 0.28 | 95 | 1006.9 |
| 20260507074220 | 8 | 270 | 0.0 | 0.0 | 0.00 | 0.28 | 0.28 | 95 | 1007.0 |
| 20260507073716 | 8 | 271 | 0.0 | 0.0 | 0.00 | 0.28 | 0.28 | 95 | 1006.6 |
| 20260507073213 | 8 | 294 | 0.0 | 0.0 | 0.00 | 0.28 | 0.28 | 95 | 1006.2 |
| 20260507072711 | 8 | 297 | 0.0 | 0.0 | 0.00 | 0.28 | 0.28 | 95 | 1006.4 |
| 20260507072207 | 8 | 270 | 0.0 | 0.0 | 0.00 | 0.28 | 0.28 | 95 | 1006.6 |
| 20260507071705 | 8 | 295 | 0.0 | 0.0 | 0.00 | 0.28 | 0.28 | 95 | 1006.2 |
| 20260507071201 | 8 | 295 | 0.0 | 0.0 | 0.00 | 0.28 | 0.28 | 95 | 1006.2 |
| 20260507070659 | 8 | 294 | 0.0 | 0.0 | 0.00 | 0.28 | 0.28 | 95 | 1006.1 |
| 20260507070155 | 8 | 294 | 0.0 | 0.0 | 0.00 | 0.28 | 0.28 | 95 | 1006.2 |
| 20260507065652 | 8 | 293 | 0.0 | 0.0 | 0.00 | 0.28 | 0.28 | 95 | 1006.0 |
| 20260507065149 | 8 | 293 | 0.0 | 0.0 | 0.00 | 0.28 | 0.28 | 95 | 1005.8 |
| 20260507064646 | 8 | 299 | 0.0 | 0.0 | 0.00 | 0.28 | 0.28 | 95 | 1005.7 |
| 20260507064144 | 8 | 290 | 0.0 | 0.0 | 0.00 | 0.28 | 0.28 | 95 | 1006.0 |
| 20260507063642 | 8 | 292 | 0.0 | 0.0 | 0.00 | 0.28 | 0.28 | 95 | 1005.7 |
| 20260507063139 | 8 | 292 | 0.0 | 0.0 | 0.00 | 0.28 | 0.28 | 95 | 1005.8 |
| 20260507062636 | 8 | 298 | 0.0 | 0.0 | 0.00 | 0.28 | 0.28 | 95 | 1005.9 |
| 20260507062133 | 8 | 297 | 0.0 | 1.6 | 0.00 | 0.28 | 0.28 | 95 | 1005.7 |
| 20260507061631 | 9 | 262 | 0.0 | 0.0 | 0.00 | 0.28 | 0.28 | 95 | 1005.9 |
| 20260507061129 | 9 | 289 | 0.0 | 0.0 | 0.00 | 0.28 | 0.28 | 95 | 1005.7 |